Simultaneous Nadir Overpasses (SNOs) Predictions

Prediction of SNOs between GOES-15 and TERRA Satellite Orbit:

Table of predicted SNOs for the next 14.0 days since TLE Epoch: 9/28/2012
Index Date Time (GOES-15) GOES-15 Lat,Lon TERRA Lat,Lon Distance(km) Time Diff (sec)
1 09/29/2012 07:36:33 0.37,-135.36 0.12,-136.43 121.68 80
2 10/01/2012 07:21:40 0.37,-135.39 0.77,-133.47 218.46 80
3 10/01/2012 19:42:55 -0.37,-135.40 0.32,-138.63 367.10 80
4 10/03/2012 19:30:41 -0.36,-135.42 -0.29,-135.66 27.56 80
5 10/05/2012 19:21:07 -0.36,-135.44 -0.92,-132.69 311.57 80
6 10/06/2012 07:42:31 0.35,-135.45 -0.15,-137.89 277.52 80
7 10/08/2012 07:27:36 0.35,-135.45 0.44,-134.92 60.83 80
8 10/10/2012 07:15:22 0.35,-135.46 1.10,-131.95 398.61 80
9 10/10/2012 19:36:37 -0.34,-135.45 -0.01,-137.11 188.24 80




NCC Satellite Simultaneous Nadir Overpasses (SNOs) Prediction Service
